AAL804 YBBN-AYPY

Flight info

Callsign AAL804
Flight time 2h 30m
Altitude 38000
Route BIXAD2 BIXAD Q67 GUDSO Q24 KELPI B220 VIPAM
Aircraft B77W/H-SDE1E2E3FGHIJ2J3J4J5M1RWXY/LB1D1

Departure

Time 2026-04-25 17:10
Airport Brisbane International Airport (YBBN)

Arrival

Time 2026-04-25 19:40
Airport Port Moresby Jacksons International Airport (AYPY)
Time Latitude Longitude Altitude Speed Heading
2026-04-25 16:51 -27.38473 153.12137 25 ft 0 kts 290°
2026-04-25 17:03 -27.38479 153.12157 26 ft 3 kts 290°
2026-04-25 17:03 -27.38486 153.12175 27 ft 3 kts 290°
2026-04-25 17:03 -27.38492 153.12194 28 ft 3 kts 290°
2026-04-25 17:03 -27.38498 153.12212 26 ft 2 kts 290°
2026-04-25 17:04 -27.38504 153.12230 26 ft 2 kts 290°
2026-04-25 17:04 -27.38509 153.12248 27 ft 2 kts 290°
2026-04-25 17:04 -27.38514 153.12262 27 ft 0 kts 290°
2026-04-25 17:05 -27.38457 153.12306 27 ft 19 kts 66°
2026-04-25 17:05 -27.38451 153.12475 27 ft 16 kts 76°
2026-04-25 17:06 -27.38379 153.12564 24 ft 12 kts 40°
2026-04-25 17:06 -27.38377 153.12627 26 ft 17 kts 87°
2026-04-25 17:06 -27.38265 153.12751 26 ft 25 kts 27°
2026-04-25 17:06 -27.38110 153.12838 25 ft 25 kts 26°
2026-04-25 17:07 -27.37952 153.12927 27 ft 28 kts 26°
2026-04-25 17:07 -27.37756 153.13038 24 ft 35 kts 27°
2026-04-25 17:07 -27.37540 153.13164 23 ft 34 kts 27°
2026-04-25 17:07 -27.37347 153.13274 24 ft 22 kts 31°
2026-04-25 17:08 -27.37339 153.13369 27 ft 13 kts 125°
2026-04-25 17:08 -27.37454 153.13427 28 ft 25 kts 189°
2026-04-25 17:08 -27.37505 153.13401 27 ft 0 kts 208°
2026-04-25 17:09 -27.37563 153.13367 28 ft 47 kts 207°
2026-04-25 17:09 -27.38216 153.12989 42 ft 160 kts 207°
2026-04-25 17:10 -27.39298 153.12361 1110 ft 183 kts 202°
2026-04-25 17:10 -27.40518 153.11667 2426 ft 204 kts 199°
2026-04-25 17:10 -27.41885 153.10895 3232 ft 236 kts 200°
2026-04-25 17:10 -27.43420 153.10019 3907 ft 255 kts 201°
2026-04-25 17:11 -27.45028 153.09091 4848 ft 264 kts 200°
2026-04-25 17:11 -27.46677 153.08139 5890 ft 268 kts 201°
2026-04-25 17:11 -27.48238 153.06938 6801 ft 283 kts 222°
2026-04-25 17:11 -27.49260 153.04989 7731 ft 298 kts 249°
2026-04-25 17:12 -27.49546 153.02648 8717 ft 308 kts 273°
2026-04-25 17:12 -27.49190 153.00279 9590 ft 315 kts 281°
2026-04-25 17:12 -27.48714 152.97843 10468 ft 323 kts 281°
2026-04-25 17:12 -27.48221 152.95289 10936 ft 348 kts 281°
2026-04-25 17:13 -27.47564 152.92562 11108 ft 375 kts 294°
2026-04-25 17:13 -27.47149 152.91677 11180 ft 385 kts 303°
2026-04-25 17:13 -27.43682 152.88410 12277 ft 401 kts 341°
2026-04-25 17:13 -27.40958 152.87840 13225 ft 399 kts
2026-04-25 17:14 -27.38290 152.88552 14232 ft 395 kts 29°
2026-04-25 17:14 -27.36113 152.90395 15087 ft 392 kts 53°
2026-04-25 17:14 -27.34794 152.93050 15900 ft 391 kts 76°
2026-04-25 17:14 -27.34473 152.96070 16716 ft 390 kts 92°
2026-04-25 17:15 -27.34411 152.99159 17343 ft 401 kts 86°
2026-04-25 17:15 -27.33716 153.02196 18106 ft 414 kts 69°
2026-04-25 17:15 -27.32310 153.05054 18963 ft 421 kts 59°
2026-04-25 17:15 -27.30604 153.07747 19794 ft 425 kts 56°
2026-04-25 17:16 -27.28723 153.10326 20475 ft 432 kts 46°
2026-04-25 17:16 -27.26398 153.12521 21146 ft 440 kts 41°
2026-04-25 17:16 -27.24017 153.14718 21886 ft 444 kts 43°
2026-04-25 17:16 -27.21607 153.16907 22558 ft 448 kts 37°
2026-04-25 17:17 -27.18770 153.18442 23089 ft 458 kts 20°
2026-04-25 17:17 -27.15688 153.19459 23680 ft 465 kts 18°
2026-04-25 17:17 -27.12562 153.20461 24271 ft 469 kts 18°
2026-04-25 17:17 -27.09428 153.21510 24938 ft 471 kts 19°
2026-04-25 17:18 -27.06292 153.22605 25540 ft 474 kts 19°
2026-04-25 17:18 -27.03122 153.23704 26063 ft 479 kts 16°
2026-04-25 17:18 -26.99806 153.24251 26510 ft 486 kts
2026-04-25 17:18 -26.96407 153.24297 27032 ft 490 kts
2026-04-25 17:19 -26.92982 153.24261 27559 ft 494 kts
2026-04-25 17:19 -26.89533 153.24237 28076 ft 497 kts
2026-04-25 17:19 -26.86053 153.24257 28557 ft 501 kts
2026-04-25 17:19 -26.82554 153.24316 28987 ft 505 kts
2026-04-25 17:20 -26.79021 153.24398 29400 ft 509 kts
2026-04-25 17:20 -26.75469 153.24485 29798 ft 512 kts
2026-04-25 17:20 -26.71903 153.24566 30303 ft 512 kts
2026-04-25 17:20 -26.68344 153.24447 30766 ft 512 kts 351°
2026-04-25 17:21 -26.64963 153.23486 31221 ft 506 kts 341°
2026-04-25 17:21 -26.61580 153.22241 31759 ft 504 kts 340°
2026-04-25 17:21 -26.58313 153.21009 32288 ft 502 kts 339°
2026-04-25 17:21 -26.55003 153.19787 32862 ft 498 kts 340°
2026-04-25 17:22 -26.51708 153.18606 33420 ft 496 kts 340°
2026-04-25 17:22 -26.50594 153.18214 33600 ft 495 kts 340°
2026-04-25 17:22 -26.45140 153.16326 34360 ft 493 kts 340°
2026-04-25 17:22 -26.41848 153.15195 34683 ft 493 kts 339°
2026-04-25 17:23 -26.38567 153.14068 34969 ft 494 kts 339°
2026-04-25 17:23 -26.35277 153.12936 35258 ft 495 kts 339°
2026-04-25 17:23 -26.31986 153.11801 35553 ft 495 kts 339°
2026-04-25 17:23 -26.28695 153.10668 35848 ft 495 kts 339°
2026-04-25 17:24 -26.25429 153.09574 36092 ft 497 kts 340°
2026-04-25 17:24 -26.22096 153.08543 36110 ft 498 kts 341°
2026-04-25 17:24 -26.15384 153.06568 36155 ft 498 kts 341°
2026-04-25 17:25 -26.08686 153.04590 36164 ft 498 kts 341°
2026-04-25 17:25 -26.01999 153.02582 36157 ft 498 kts 340°
2026-04-25 17:26 -25.95299 153.00561 36158 ft 498 kts 340°
2026-04-25 17:26 -25.88596 152.98543 36156 ft 499 kts 340°
2026-04-25 17:27 -25.81933 152.96541 36151 ft 499 kts 340°
2026-04-25 17:27 -25.77442 152.95193 36149 ft 499 kts 340°
2026-04-25 17:28 -25.68504 152.92514 36149 ft 500 kts 340°
2026-04-25 17:28 -25.61814 152.90408 36147 ft 497 kts 335°
2026-04-25 17:29 -25.55395 152.87608 36144 ft 495 kts 333°
2026-04-25 17:29 -25.49007 152.84728 36146 ft 496 kts 333°
2026-04-25 17:30 -25.42608 152.81868 36139 ft 496 kts 333°
2026-04-25 17:30 -25.36228 152.79044 36045 ft 499 kts 332°
2026-04-25 17:31 -25.29729 152.76174 36137 ft 506 kts 332°
2026-04-25 17:31 -25.23152 152.73276 36385 ft 510 kts 332°
2026-04-25 17:32 -25.20928 152.72299 36637 ft 508 kts 332°
2026-04-25 17:32 -25.17691 152.70878 37031 ft 506 kts 332°
2026-04-25 17:32 -25.14429 152.69446 37394 ft 504 kts 332°
2026-04-25 17:32 -25.11168 152.68014 37714 ft 503 kts 332°
2026-04-25 17:33 -25.07919 152.66587 37998 ft 503 kts 332°
2026-04-25 17:33 -25.04661 152.65155 38072 ft 504 kts 332°
2026-04-25 17:33 -24.98144 152.62294 38126 ft 504 kts 332°
2026-04-25 17:34 -24.91627 152.59438 38129 ft 503 kts 332°
2026-04-25 17:34 -24.85128 152.56593 38125 ft 503 kts 332°
2026-04-25 17:35 -24.78662 152.53766 38118 ft 502 kts 332°
2026-04-25 17:35 -24.72151 152.50922 38124 ft 502 kts 332°
2026-04-25 17:36 -24.65650 152.48086 38120 ft 502 kts 331°
2026-04-25 17:36 -24.59155 152.45256 38118 ft 502 kts 331°
2026-04-25 17:37 -24.52658 152.42428 38111 ft 502 kts 331°
2026-04-25 17:37 -24.46205 152.39622 38114 ft 502 kts 331°
2026-04-25 17:38 -24.40801 152.37275 38113 ft 502 kts 331°
2026-04-25 17:38 -24.33211 152.33982 38109 ft 501 kts 331°
2026-04-25 17:39 -24.26722 152.31170 38107 ft 501 kts 330°
2026-04-25 17:39 -24.20229 152.28359 38100 ft 501 kts 330°
2026-04-25 17:40 -24.13743 152.25555 38100 ft 501 kts 330°
2026-04-25 17:40 -24.07301 152.22772 38095 ft 500 kts 330°
2026-04-25 17:41 -24.00815 152.19974 38106 ft 500 kts 330°
2026-04-25 17:41 -23.94340 152.17183 38090 ft 500 kts 330°
2026-04-25 17:42 -23.87874 152.14399 38090 ft 499 kts 330°
2026-04-25 17:42 -23.81405 152.11617 38083 ft 499 kts 330°
2026-04-25 17:43 -23.74949 152.08844 38082 ft 499 kts 330°
2026-04-25 17:43 -23.68486 152.06070 38085 ft 498 kts 330°
2026-04-25 17:44 -23.62030 152.03303 38086 ft 498 kts 329°
2026-04-25 17:44 -23.55579 152.00540 38080 ft 498 kts 329°
2026-04-25 17:45 -23.50216 151.98246 38081 ft 498 kts 329°
2026-04-25 17:45 -23.42722 151.95043 38074 ft 498 kts 329°
2026-04-25 17:46 -23.36271 151.92289 38075 ft 497 kts 329°
2026-04-25 17:46 -23.29821 151.89538 38071 ft 498 kts 329°
2026-04-25 17:47 -23.23373 151.86792 38070 ft 497 kts 329°
2026-04-25 17:47 -23.16931 151.84050 38077 ft 497 kts 329°
2026-04-25 17:48 -23.07265 151.79942 38062 ft 496 kts 329°
2026-04-25 17:49 -23.00877 151.77231 38065 ft 496 kts 329°
2026-04-25 17:49 -22.94455 151.74508 38062 ft 496 kts 329°
2026-04-25 17:50 -22.88037 151.71789 38059 ft 495 kts 329°
2026-04-25 17:50 -22.81622 151.69074 38056 ft 494 kts 329°
2026-04-25 17:51 -22.75220 151.66368 38060 ft 493 kts 329°
2026-04-25 17:51 -22.68829 151.63668 38059 ft 492 kts 329°
2026-04-25 17:52 -22.62458 151.60979 38056 ft 490 kts 329°
2026-04-25 17:52 -22.56135 151.58317 38051 ft 490 kts 330°
2026-04-25 17:53 -22.49670 151.55893 38054 ft 493 kts 333°
2026-04-25 17:53 -22.43137 151.53620 38055 ft 492 kts 333°
2026-04-25 17:54 -22.36626 151.51335 38052 ft 491 kts 333°
2026-04-25 17:54 -22.30173 151.49031 38049 ft 490 kts 332°
2026-04-25 17:55 -22.23705 151.46706 38041 ft 489 kts 332°
2026-04-25 17:55 -22.17238 151.44383 38041 ft 489 kts 332°
2026-04-25 17:56 -22.10773 151.42064 38048 ft 489 kts 332°
2026-04-25 17:56 -22.04317 151.39753 38055 ft 489 kts 332°
2026-04-25 17:57 -21.97863 151.37445 38048 ft 488 kts 332°
2026-04-25 17:57 -21.91413 151.35140 38040 ft 488 kts 332°
2026-04-25 17:58 -21.85008 151.32855 38039 ft 487 kts 332°
2026-04-25 17:58 -21.78570 151.30558 38037 ft 487 kts 332°
2026-04-25 17:59 -21.72138 151.28267 38037 ft 487 kts 332°
2026-04-25 17:59 -21.65715 151.25981 38040 ft 486 kts 332°
2026-04-25 18:00 -21.59288 151.23695 38041 ft 486 kts 332°
2026-04-25 18:00 -21.52868 151.21414 38039 ft 485 kts 332°
2026-04-25 18:01 -21.46455 151.19137 38037 ft 485 kts 332°
2026-04-25 18:01 -21.40040 151.16863 38039 ft 485 kts 332°
2026-04-25 18:02 -21.33631 151.14592 38038 ft 485 kts 332°
2026-04-25 18:02 -21.27222 151.12323 38030 ft 485 kts 332°
2026-04-25 18:03 -21.20814 151.10057 38029 ft 485 kts 332°
2026-04-25 18:03 -21.14396 151.07789 38022 ft 485 kts 332°
2026-04-25 18:04 -21.08035 151.05544 38035 ft 484 kts 331°
2026-04-25 18:04 -21.01636 151.03287 38027 ft 484 kts 331°
2026-04-25 18:05 -20.95230 151.01030 38029 ft 484 kts 331°
2026-04-25 18:05 -20.88826 150.98776 38020 ft 484 kts 331°
2026-04-25 18:06 -20.82426 150.96525 38022 ft 484 kts 331°
2026-04-25 18:06 -20.76022 150.94274 38022 ft 484 kts 331°
2026-04-25 18:07 -20.69627 150.92029 38022 ft 484 kts 331°
2026-04-25 18:07 -20.63258 150.89795 38022 ft 484 kts 331°
2026-04-25 18:08 -20.56859 150.87553 38022 ft 484 kts 330°
2026-04-25 18:08 -20.50458 150.85311 38021 ft 484 kts 330°
2026-04-25 18:09 -20.44058 150.83072 38021 ft 484 kts 331°
2026-04-25 18:09 -20.37650 150.80832 38024 ft 484 kts 330°
2026-04-25 18:10 -20.31256 150.78599 38019 ft 483 kts 330°
2026-04-25 18:10 -20.24891 150.76378 38018 ft 483 kts 330°
2026-04-25 18:11 -20.18496 150.74148 38017 ft 483 kts 330°
2026-04-25 18:11 -20.12104 150.71923 38014 ft 483 kts 331°
2026-04-25 18:12 -20.05728 150.69704 38013 ft 482 kts 331°
2026-04-25 18:12 -19.99351 150.67486 38019 ft 482 kts 331°
2026-04-25 18:13 -19.92975 150.65271 38012 ft 481 kts 331°
2026-04-25 18:13 -19.86653 150.63077 38015 ft 480 kts 331°
2026-04-25 18:14 -19.77122 150.59771 38008 ft 480 kts 331°
2026-04-25 18:14 -19.70763 150.57568 38009 ft 480 kts 331°
2026-04-25 18:15 -19.64412 150.55369 38009 ft 480 kts 331°
2026-04-25 18:15 -19.58098 150.53185 38009 ft 480 kts 331°
2026-04-25 18:16 -19.51744 150.50990 38004 ft 480 kts 331°
2026-04-25 18:17 -19.43278 150.48067 38005 ft 480 kts 331°
2026-04-25 18:17 -19.35885 150.45517 38002 ft 481 kts 332°
2026-04-25 18:18 -19.30549 150.43678 37999 ft 481 kts 332°
2026-04-25 18:18 -19.24175 150.41483 38011 ft 482 kts 332°
2026-04-25 18:19 -19.17833 150.39301 38003 ft 482 kts 332°
2026-04-25 18:19 -19.11444 150.37105 38002 ft 483 kts 332°
2026-04-25 18:20 -19.05050 150.34909 38005 ft 483 kts 332°
2026-04-25 18:20 -18.98643 150.32710 38004 ft 484 kts 332°
2026-04-25 18:21 -18.92227 150.30510 38001 ft 484 kts 332°
2026-04-25 18:21 -18.85809 150.28311 37998 ft 485 kts 332°
2026-04-25 18:22 -18.79423 150.26124 38002 ft 485 kts 332°
2026-04-25 18:22 -18.72989 150.23924 38000 ft 486 kts 333°
2026-04-25 18:23 -18.66564 150.21728 38000 ft 485 kts 333°
2026-04-25 18:23 -18.60128 150.19529 37999 ft 485 kts 333°
2026-04-25 18:24 -18.53704 150.17337 37991 ft 485 kts 333°
2026-04-25 18:24 -18.47276 150.15145 37994 ft 485 kts 333°
2026-04-25 18:25 -18.40887 150.12968 37994 ft 485 kts 333°
2026-04-25 18:25 -18.34469 150.10783 37991 ft 484 kts 333°
2026-04-25 18:26 -18.28060 150.08602 37992 ft 484 kts 333°
2026-04-25 18:26 -18.21657 150.06424 37991 ft 483 kts 333°
2026-04-25 18:27 -18.15252 150.04248 37992 ft 482 kts 333°
2026-04-25 18:27 -18.08901 150.02094 37993 ft 482 kts 333°
2026-04-25 18:28 -18.02517 149.99931 37987 ft 482 kts 333°
2026-04-25 18:28 -17.96120 149.97763 37979 ft 482 kts 334°
2026-04-25 18:29 -17.86550 149.94523 37987 ft 482 kts 334°
2026-04-25 18:30 -17.73817 149.90219 37984 ft 482 kts 334°
2026-04-25 18:30 -17.67431 149.88062 37984 ft 482 kts 334°
2026-04-25 18:31 -17.61039 149.85905 37986 ft 482 kts 334°
2026-04-25 18:31 -17.54655 149.83752 37982 ft 482 kts 334°
2026-04-25 18:32 -17.48271 149.81601 37981 ft 482 kts 334°
2026-04-25 18:32 -17.41928 149.79465 37990 ft 481 kts 334°
2026-04-25 18:33 -17.35547 149.77318 37981 ft 481 kts 334°
2026-04-25 18:33 -17.29159 149.75171 37976 ft 481 kts 334°
2026-04-25 18:34 -17.22783 149.73029 37983 ft 481 kts 334°
2026-04-25 18:34 -17.16414 149.70890 37978 ft 481 kts 334°
2026-04-25 18:35 -17.10042 149.68753 37976 ft 481 kts 334°
2026-04-25 18:35 -17.03674 149.66618 37975 ft 480 kts 334°
2026-04-25 18:36 -16.97301 149.64483 37982 ft 480 kts 335°
2026-04-25 18:36 -16.90975 149.62365 37977 ft 480 kts 335°
2026-04-25 18:37 -16.84601 149.60233 37976 ft 480 kts 335°
2026-04-25 18:37 -16.78229 149.58103 37976 ft 480 kts 335°
2026-04-25 18:38 -16.71848 149.55971 37973 ft 481 kts 335°
2026-04-25 18:38 -16.65461 149.53839 37971 ft 481 kts 335°
2026-04-25 18:39 -16.59088 149.51713 37969 ft 481 kts 335°
2026-04-25 18:39 -16.52753 149.49601 37967 ft 481 kts 335°
2026-04-25 18:40 -16.46377 149.47477 37970 ft 481 kts 335°
2026-04-25 18:40 -16.39992 149.45351 37968 ft 481 kts 335°
2026-04-25 18:41 -16.33609 149.43228 37967 ft 481 kts 335°
2026-04-25 18:41 -16.27228 149.41107 37963 ft 481 kts 335°
2026-04-25 18:42 -16.22956 149.39688 37963 ft 481 kts 335°
2026-04-25 18:42 -16.14458 149.36866 37961 ft 482 kts 335°
2026-04-25 18:43 -16.08106 149.34759 37958 ft 482 kts 335°
2026-04-25 18:43 -16.01712 149.32639 37965 ft 482 kts 335°
2026-04-25 18:44 -15.95323 149.30522 37963 ft 482 kts 335°
2026-04-25 18:44 -15.88926 149.28404 37963 ft 482 kts 335°
2026-04-25 18:45 -15.82533 149.26289 37960 ft 482 kts 335°
2026-04-25 18:45 -15.76136 149.24173 37960 ft 482 kts 335°
2026-04-25 18:46 -15.69731 149.22057 37956 ft 483 kts 335°
2026-04-25 18:46 -15.63327 149.19942 37957 ft 483 kts 335°
2026-04-25 18:47 -15.56920 149.17828 37956 ft 483 kts 335°
2026-04-25 18:47 -15.50559 149.15730 37956 ft 483 kts 336°
2026-04-25 18:48 -15.44156 149.13619 37958 ft 483 kts 336°
2026-04-25 18:48 -15.37747 149.11509 37949 ft 483 kts 336°
2026-04-25 18:49 -15.31343 149.09400 37957 ft 483 kts 336°
2026-04-25 18:49 -15.24932 149.07291 37955 ft 483 kts 336°
2026-04-25 18:50 -15.18525 149.05186 37953 ft 483 kts 336°
2026-04-25 18:50 -15.12125 149.03085 37952 ft 483 kts 336°
2026-04-25 18:51 -15.07885 149.01693 37949 ft 482 kts 336°
2026-04-25 18:51 -14.99368 148.98899 37954 ft 482 kts 336°
2026-04-25 18:52 -14.92958 148.96798 37951 ft 482 kts 336°
2026-04-25 18:52 -14.86566 148.94703 37950 ft 482 kts 336°
2026-04-25 18:53 -14.80205 148.92621 37946 ft 482 kts 336°
2026-04-25 18:53 -14.73813 148.90529 37949 ft 481 kts 336°
2026-04-25 18:54 -14.64233 148.87396 37949 ft 481 kts 336°
2026-04-25 18:55 -14.57848 148.85310 37951 ft 481 kts 336°
2026-04-25 18:55 -14.51457 148.83223 37948 ft 481 kts 336°
2026-04-25 18:56 -14.45077 148.81141 37948 ft 481 kts 337°
2026-04-25 18:56 -14.38743 148.79075 37949 ft 481 kts 337°
2026-04-25 18:57 -14.32358 148.76994 37950 ft 481 kts 337°
2026-04-25 18:57 -14.25969 148.74913 37945 ft 481 kts 337°
2026-04-25 18:58 -14.19591 148.72836 37949 ft 481 kts 337°
2026-04-25 18:58 -14.10051 148.69733 37948 ft 481 kts 337°
2026-04-25 18:59 -13.97272 148.65579 37948 ft 482 kts 337°
2026-04-25 19:00 -13.87679 148.62465 37942 ft 482 kts 338°
2026-04-25 19:01 -13.78073 148.59349 37943 ft 483 kts 338°
2026-04-25 19:01 -13.71700 148.57283 37943 ft 483 kts 338°
2026-04-25 19:02 -13.62074 148.54166 37941 ft 483 kts 338°
2026-04-25 19:03 -13.54580 148.51740 37942 ft 483 kts 338°
2026-04-25 19:03 -13.46040 148.48978 37939 ft 483 kts 338°
2026-04-25 19:04 -13.37506 148.46220 37939 ft 483 kts 338°
2026-04-25 19:05 -13.23642 148.41743 37940 ft 483 kts 338°
2026-04-25 19:06 -13.18266 148.40009 37937 ft 483 kts 338°
2026-04-25 19:06 -13.08687 148.36921 37941 ft 483 kts 338°
2026-04-25 19:07 -12.99063 148.33820 37939 ft 482 kts 338°
2026-04-25 19:08 -12.89505 148.30744 37936 ft 482 kts 338°
2026-04-25 19:09 -12.77754 148.26965 37934 ft 481 kts 338°
2026-04-25 19:10 -12.67103 148.23543 37928 ft 481 kts 338°
2026-04-25 19:10 -12.60719 148.21493 37934 ft 480 kts 338°
2026-04-25 19:11 -12.54379 148.19458 37932 ft 480 kts 338°
2026-04-25 19:11 -12.48008 148.17415 37933 ft 480 kts 338°
2026-04-25 19:12 -12.41637 148.15372 37930 ft 479 kts 338°
2026-04-25 19:12 -12.35270 148.13332 37928 ft 479 kts 338°
2026-04-25 19:13 -12.28906 148.11294 37927 ft 479 kts 338°
2026-04-25 19:13 -12.22547 148.09258 37927 ft 479 kts 338°
2026-04-25 19:14 -12.16230 148.07237 37926 ft 478 kts 338°
2026-04-25 19:14 -12.09871 148.05203 37923 ft 478 kts 338°
2026-04-25 19:15 -12.03519 148.03172 37924 ft 478 kts 338°
2026-04-25 19:15 -11.97158 148.01141 37920 ft 478 kts 339°
2026-04-25 19:16 -11.90800 147.99114 37930 ft 478 kts 339°
2026-04-25 19:16 -11.84489 147.97104 37929 ft 478 kts 339°
2026-04-25 19:17 -11.78125 147.95076 37920 ft 478 kts 339°
2026-04-25 19:17 -11.71770 147.93052 37932 ft 478 kts 339°
2026-04-25 19:18 -11.65410 147.91027 37920 ft 478 kts 339°
2026-04-25 19:18 -11.59057 147.89006 37917 ft 478 kts 339°
2026-04-25 19:19 -11.52701 147.86984 37915 ft 479 kts 339°
2026-04-25 19:19 -11.46342 147.84962 37916 ft 479 kts 339°
2026-04-25 19:19 -11.44233 147.84292 37800 ft 480 kts 339°
2026-04-25 19:20 -11.40035 147.82960 37459 ft 471 kts 339°
2026-04-25 19:20 -11.36915 147.81970 36885 ft 475 kts 339°
2026-04-25 19:20 -11.33701 147.80943 36598 ft 489 kts 339°
2026-04-25 19:21 -11.27127 147.78850 36620 ft 501 kts 339°
2026-04-25 19:21 -11.17005 147.75642 36635 ft 514 kts 340°
2026-04-25 19:22 -11.10129 147.73464 36632 ft 520 kts 340°
2026-04-25 19:23 -10.99695 147.70160 36627 ft 526 kts 340°
2026-04-25 19:23 -10.92728 147.67956 37364 ft 513 kts 340°
2026-04-25 19:23 -10.89352 147.66889 37375 ft 517 kts 340°
2026-04-25 19:24 -10.82472 147.64710 37395 ft 517 kts 340°
2026-04-25 19:24 -10.75780 147.62598 37138 ft 489 kts 340°
2026-04-25 19:25 -10.69349 147.60566 35912 ft 482 kts 340°
2026-04-25 19:25 -10.66135 147.59547 34990 ft 486 kts 340°
2026-04-25 19:25 -10.62886 147.58517 34053 ft 491 kts 340°
2026-04-25 19:26 -10.59613 147.57481 33045 ft 495 kts 340°
2026-04-25 19:26 -10.56314 147.56438 32140 ft 496 kts 340°
2026-04-25 19:26 -10.53030 147.55402 31505 ft 493 kts 340°
2026-04-25 19:26 -10.49766 147.54374 30965 ft 487 kts 340°
2026-04-25 19:27 -10.46542 147.53358 30408 ft 486 kts 340°
2026-04-25 19:27 -10.44398 147.52681 29941 ft 487 kts 340°
2026-04-25 19:27 -10.40114 147.51328 28870 ft 486 kts 340°
2026-04-25 19:27 -10.36880 147.50307 27898 ft 488 kts 340°
2026-04-25 19:28 -10.33697 147.49304 26886 ft 469 kts 340°
2026-04-25 19:28 -10.30632 147.48340 25927 ft 451 kts 340°
2026-04-25 19:28 -10.27693 147.47415 25005 ft 435 kts 340°
2026-04-25 19:28 -10.24842 147.46517 24121 ft 422 kts 341°
2026-04-25 19:29 -10.22014 147.45844 23201 ft 413 kts 349°
2026-04-25 19:29 -10.19203 147.45444 22193 ft 403 kts 351°
2026-04-25 19:29 -10.16446 147.45126 21222 ft 394 kts 352°
2026-04-25 19:29 -10.13746 147.44818 20277 ft 385 kts 352°
2026-04-25 19:30 -10.11124 147.44499 19486 ft 374 kts 351°
2026-04-25 19:30 -10.08577 147.44171 18695 ft 364 kts 351°
2026-04-25 19:30 -10.06098 147.43840 17883 ft 354 kts 351°
2026-04-25 19:30 -10.03686 147.43512 17011 ft 346 kts 352°
2026-04-25 19:31 -10.01331 147.43189 16160 ft 338 kts 352°
2026-04-25 19:31 -9.99051 147.42876 15342 ft 331 kts 352°
2026-04-25 19:31 -9.96788 147.42566 14545 ft 325 kts 352°
2026-04-25 19:31 -9.94567 147.42262 13750 ft 319 kts 353°
2026-04-25 19:32 -9.92374 147.41963 12882 ft 315 kts 353°
2026-04-25 19:32 -9.90212 147.41667 12031 ft 312 kts 353°
2026-04-25 19:32 -9.88067 147.41374 11302 ft 308 kts 353°
2026-04-25 19:32 -9.87382 147.41281 11091 ft 306 kts 353°
2026-04-25 19:33 -9.83883 147.40803 9919 ft 299 kts 353°
2026-04-25 19:33 -9.81828 147.40522 9185 ft 296 kts 353°
2026-04-25 19:33 -9.79796 147.40242 8439 ft 294 kts 353°
2026-04-25 19:33 -9.77779 147.39962 7730 ft 291 kts 354°
2026-04-25 19:34 -9.75806 147.39683 7028 ft 288 kts 354°
2026-04-25 19:34 -9.73806 147.39389 6300 ft 285 kts 354°
2026-04-25 19:34 -9.71890 147.39055 5574 ft 283 kts 346°
2026-04-25 19:34 -9.70082 147.38227 4974 ft 291 kts 332°
2026-04-25 19:35 -9.68342 147.37136 4521 ft 296 kts 329°
2026-04-25 19:35 -9.66590 147.36005 4147 ft 296 kts 330°
2026-04-25 19:35 -9.64872 147.34921 4063 ft 285 kts 330°
2026-04-25 19:35 -9.63215 147.33889 3998 ft 273 kts 331°
2026-04-25 19:36 -9.61615 147.32896 3758 ft 269 kts 331°
2026-04-25 19:36 -9.60021 147.31907 3468 ft 268 kts 330°
2026-04-25 19:36 -9.58494 147.30955 3091 ft 254 kts 331°
2026-04-25 19:36 -9.57032 147.30045 2760 ft 239 kts 331°
2026-04-25 19:37 -9.55650 147.29186 2449 ft 225 kts 331°
2026-04-25 19:37 -9.54353 147.28380 2161 ft 211 kts 332°
2026-04-25 19:37 -9.53140 147.27628 1922 ft 198 kts 330°
2026-04-25 19:37 -9.52008 147.26923 1680 ft 184 kts 330°
2026-04-25 19:38 -9.50963 147.26274 1445 ft 170 kts 329°
2026-04-25 19:38 -9.49967 147.25655 1233 ft 166 kts 330°
2026-04-25 19:38 -9.48999 147.25055 1023 ft 161 kts 329°
2026-04-25 19:38 -9.48046 147.24462 824 ft 162 kts 329°
2026-04-25 19:39 -9.47094 147.23869 627 ft 155 kts 329°
2026-04-25 19:39 -9.46170 147.23298 405 ft 156 kts 328°
2026-04-25 19:39 -9.45222 147.22707 216 ft 160 kts 330°
2026-04-25 19:39 -9.44344 147.22184 135 ft 132 kts 331°
2026-04-25 19:40 -9.43841 147.21859 121 ft 46 kts 328°
2026-04-25 19:40 -9.43654 147.21739 119 ft 31 kts 327°
2026-04-25 19:40 -9.43466 147.21619 117 ft 33 kts 328°
2026-04-25 19:40 -9.43263 147.21496 115 ft 34 kts 329°
2026-04-25 19:41 -9.43121 147.21359 118 ft 21 kts 264°
2026-04-25 19:41 -9.43181 147.21255 113 ft 16 kts 239°
2026-04-25 19:41 -9.43241 147.21156 112 ft 16 kts 238°
2026-04-25 19:41 -9.43262 147.21123 112 ft 16 kts 237°
2026-04-25 19:42 -9.43421 147.21109 113 ft 11 kts 205°
2026-04-25 19:42 -9.43464 147.21087 114 ft 3 kts 169°
2026-04-25 19:42 -9.43498 147.21101 115 ft 12 kts 152°
2026-04-25 19:42 -9.43567 147.21131 114 ft 8 kts 184°
2026-04-25 19:43 -9.43611 147.21092 114 ft 15 kts 212°
2026-04-25 19:43 -9.43688 147.21094 114 ft 6 kts 154°
2026-04-25 19:43 -9.43710 147.21118 117 ft 2 kts 106°
2026-04-25 19:43 -9.43709 147.21122 117 ft 0 kts 95°